Location: Feigenhofen
(48.4939°N, 10.7793°E)
Time: 22:17:05
(UTC+00:00)

Cosmos 1461 - Pass Details

Date: 26 May 2022
Orbit: 517 x 638 km, 65.0° (Epoch: 24 June)

Event Time Altitude Azimuth Distance (km) Brightness Sun altitude
Rises 00:01:33 0° 314° (NW) 2,738 6.8 -19.6°
Reaches altitude 10° 00:03:53 10° 305° (NW) 1,860 5.8 -19.5°
Enters shadow 00:07:20 31° 250° (WSW) 1,012 3.8 -19.4°
